Murray, KY

9:53 PM CDT on September 20, 2017 (GMT -0500)
Kyle-Oakley

Weather History for KCEY - March, 2013

Change the Weather History Date:

Monday, March 4, 2013

  Actual Average (KPAH) Record (KPAH)
Temperature  
Mean Temperature 46 °F -  
Max Temperature 57 °F 54 °F 79 °F (1983)
Min Temperature 35 °F 35 °F 5 °F (1960)
Degree Days  
Heating Degree Days 19    
Moisture  
Dew Point 29 °F    
Average Humidity 53    
Maximum Humidity 87    
Minimum Humidity 36    
Precipitation  
Precipitation 0.04 in - - ()
Sea Level Pressure  
Sea Level Pressure 29.94 in    
Wind  
Wind Speed 7 mph (SE)    
Max Wind Speed 16 mph    
Max Gust Speed 25 mph    
Visibility 10 miles    
Events      
Averages and records for this station are not official NWS values.
T = Trace of Precipitation, MM = Missing Value Source: NWS Daily Summary

Daily Weather History Graph

Daily Weather History Graph

Search for Another Location

Airport or City:

Trip Planner

Search our weather history database for the weather conditions in past years. The results will help you decide how hot, cold, wet, or windy it might be!

Date:

Astronomy

Mar. 04, 2013 Rise Set
Actual Time 6:19 AM CST 5:51 PM CST
Civil Twilight 5:53 AM CST 6:16 PM CST
Nautical Twilight 5:23 AM CST 6:46 PM CST
Astronomical Twilight 4:53 AM CST 7:16 PM CST
Moon 12:22 AM CST (3/4) 10:39 AM CST (3/4)
Length of Visible Light 12h 23m
Length of Day
11h 31m
Waning Gibbous, 52% of the Moon is Illuminated
Mar 4
Waning Gibbous
Mar 4
Last Quarter
Mar 11
New
Mar 19
First Quarter
Mar 27
Full

Hourly Weather History & Observations

Time (CST) Temp. Windchill Dew Point Humidity Pressure Visibility Wind Dir Wind Speed Gust Speed Precip Events Conditions
12:15 AM 35.6 °F 31.7 °F 24.8 °F 65% 30.10 in 10.0 mi ESE 4.6 mph - N/A   Overcast
12:35 AM 35.6 °F 32.8 °F 24.8 °F 65% 30.10 in 10.0 mi ESE 3.5 mph - N/A   Overcast
12:55 AM 35.6 °F 32.8 °F 24.8 °F 65% 30.10 in 10.0 mi SE 3.5 mph - N/A   Overcast
1:15 AM 35.6 °F 31.7 °F 24.8 °F 65% 30.11 in 10.0 mi SE 4.6 mph - N/A   Overcast
1:35 AM 35.6 °F 31.7 °F 24.8 °F 65% 30.11 in 10.0 mi SE 4.6 mph - N/A   Overcast
1:55 AM 35.6 °F 31.7 °F 24.8 °F 65% 30.10 in 10.0 mi SE 4.6 mph - N/A   Overcast
2:15 AM 35.6 °F 30.7 °F 24.8 °F 65% 30.09 in 10.0 mi SE 5.8 mph - N/A   Overcast
2:35 AM 35.6 °F 30.7 °F 24.8 °F 65% 30.08 in 10.0 mi ESE 5.8 mph - N/A   Overcast
2:55 AM 35.6 °F 30.7 °F 24.8 °F 65% 30.08 in 10.0 mi SE 5.8 mph - N/A   Overcast
3:15 AM 35.6 °F 30.7 °F 24.8 °F 65% 30.08 in 10.0 mi ESE 5.8 mph - N/A   Mostly Cloudy
3:35 AM 35.6 °F 29.9 °F 24.8 °F 65% 30.07 in 10.0 mi ESE 6.9 mph - N/A   Mostly Cloudy
3:55 AM 35.6 °F 29.9 °F 24.8 °F 65% 30.07 in 10.0 mi ESE 6.9 mph - N/A   Overcast
4:15 AM 35.6 °F 29.2 °F 23.0 °F 60% 30.07 in 10.0 mi SE 8.1 mph - N/A   Overcast
4:35 AM 35.6 °F 29.9 °F 23.0 °F 60% 30.07 in 10.0 mi ESE 6.9 mph - N/A   Overcast
5:15 AM 35.6 °F 30.7 °F 23.0 °F 60% 30.07 in 10.0 mi SE 5.8 mph - N/A   Mostly Cloudy
6:15 AM 35.6 °F 29.9 °F 23.0 °F 60% 30.07 in 10.0 mi ESE 6.9 mph - N/A   Scattered Clouds
6:35 AM 35.6 °F 28.6 °F 23.0 °F 60% 30.06 in 10.0 mi SE 9.2 mph - N/A   Clear
6:55 AM 35.6 °F 28.6 °F 23.0 °F 60% 30.06 in 10.0 mi SE 9.2 mph - N/A   Clear
7:15 AM 35.6 °F 28.0 °F 21.2 °F 56% 30.06 in 10.0 mi SE 10.4 mph - N/A   Clear
7:35 AM 35.6 °F 27.5 °F 21.2 °F 56% 30.06 in 10.0 mi SE 11.5 mph 17.3 mph N/A   Clear
7:55 AM 37.4 °F 30.8 °F 21.2 °F 52% 30.06 in 10.0 mi SE 9.2 mph - N/A   Clear
8:15 AM 37.4 °F 30.8 °F 21.2 °F 52% 30.06 in 10.0 mi SE 9.2 mph 16.1 mph N/A   Clear
8:35 AM 39.2 °F 33.0 °F 23.0 °F 52% 30.05 in 10.0 mi SE 9.2 mph 17.3 mph N/A   Clear
8:55 AM 39.2 °F 31.2 °F 21.2 °F 49% 30.04 in 10.0 mi SE 13.8 mph 19.6 mph N/A   Clear
9:15 AM 41.0 °F 33.5 °F 23.0 °F 49% 30.04 in 10.0 mi SE 13.8 mph - N/A   Clear
9:55 AM 42.8 °F 37.5 °F 24.8 °F 49% 30.01 in 10.0 mi SSE 9.2 mph 24.2 mph N/A   Clear
10:15 AM 44.6 °F 38.1 °F 23.0 °F 43% 30.01 in 10.0 mi SSE 13.8 mph 21.9 mph N/A   Clear
10:35 AM 44.6 °F 39.2 °F 23.0 °F 43% 30.00 in 10.0 mi SSE 10.4 mph 21.9 mph N/A   Clear
10:55 AM 46.4 °F 40.7 °F 24.8 °F 43% 29.98 in 10.0 mi SSE 12.7 mph 24.2 mph N/A   Clear
11:15 AM 46.4 °F 41.1 °F 26.6 °F 46% 29.97 in 10.0 mi SSE 11.5 mph 19.6 mph N/A   Clear
11:35 AM 48.2 °F - 26.6 °F 43% 29.95 in 10.0 mi SE 15.0 mph 19.6 mph N/A   Clear
11:55 AM 50.0 °F - 26.6 °F 40% 29.93 in 10.0 mi SSE 15.0 mph 25.3 mph N/A   Clear
12:15 PM 50.0 °F - 26.6 °F 40% 29.91 in 10.0 mi SE 16.1 mph 20.7 mph N/A   Clear
12:55 PM 53.6 °F - 28.4 °F 38% 29.89 in 10.0 mi SSE 13.8 mph 23.0 mph N/A   Clear
1:15 PM 53.6 °F - 28.4 °F 38% 29.87 in 10.0 mi SSE 16.1 mph 24.2 mph N/A   Clear
1:35 PM 53.6 °F - 28.4 °F 38% 29.86 in 10.0 mi SSE 10.4 mph 20.7 mph N/A   Clear
1:55 PM 55.4 °F - 30.2 °F 38% 29.84 in 10.0 mi SSE 8.1 mph 23.0 mph N/A   Clear
2:15 PM 55.4 °F - 28.4 °F 36% 29.84 in 10.0 mi SSE 13.8 mph 23.0 mph N/A   Clear
2:35 PM 55.4 °F - 30.2 °F 38% 29.83 in 10.0 mi SE 12.7 mph 20.7 mph N/A   Clear
2:55 PM 57.2 °F - 30.2 °F 36% 29.82 in 10.0 mi SSE 15.0 mph 21.9 mph N/A   Clear
3:15 PM 55.4 °F - 30.2 °F 38% 29.82 in 10.0 mi SSE 13.8 mph 23.0 mph N/A   Partly Cloudy
3:35 PM 55.4 °F - 32.0 °F 41% 29.82 in 10.0 mi SSE 9.2 mph 17.3 mph N/A   Mostly Cloudy
3:55 PM 55.4 °F - 32.0 °F 41% 29.82 in 10.0 mi SSE 5.8 mph - N/A   Overcast
4:15 PM 55.4 °F - 32.0 °F 41% 29.81 in 10.0 mi SE 8.1 mph - N/A   Overcast
4:35 PM 55.4 °F - 32.0 °F 41% 29.82 in 10.0 mi SE 5.8 mph - N/A   Overcast
4:55 PM 55.4 °F - 32.0 °F 41% 29.81 in 10.0 mi SE 5.8 mph - N/A   Overcast
5:15 PM 55.4 °F - 32.0 °F 41% 29.81 in 10.0 mi ESE 5.8 mph - N/A   Overcast
5:35 PM 55.4 °F - 32.0 °F 41% 29.81 in 10.0 mi ESE 6.9 mph - N/A   Overcast
6:15 PM 53.6 °F - 32.0 °F 44% 29.83 in 10.0 mi SE 5.8 mph - N/A   Overcast
6:35 PM 53.6 °F - 33.8 °F 47% 29.83 in 10.0 mi SE 5.8 mph - N/A   Overcast
6:55 PM 53.6 °F - 32.0 °F 44% 29.83 in 10.0 mi ESE 4.6 mph - N/A   Overcast
7:15 PM 53.6 °F - 32.0 °F 44% 29.83 in 10.0 mi SE 5.8 mph - N/A   Overcast
7:35 PM 53.6 °F - 32.0 °F 44% 29.83 in 10.0 mi ESE 5.8 mph - N/A   Overcast
7:55 PM 53.6 °F - 32.0 °F 44% 29.83 in 10.0 mi East 5.8 mph - N/A   Overcast
8:15 PM 53.6 °F - 32.0 °F 44% 29.83 in 10.0 mi ESE 6.9 mph - N/A   Overcast
8:35 PM 51.8 °F - 35.6 °F 54% 29.83 in 10.0 mi ESE 6.9 mph - N/A   Overcast
8:55 PM 51.8 °F - 35.6 °F 54% 29.82 in 10.0 mi East 6.9 mph - N/A   Overcast
9:35 PM 51.8 °F - 33.8 °F 50% 29.82 in 10.0 mi ESE 4.6 mph - N/A   Overcast
9:55 PM 50.0 °F - 39.2 °F 66% 29.82 in 8.0 mi East 5.8 mph - N/A   Overcast
10:15 PM 48.2 °F - 37.4 °F 66% 29.81 in 10.0 mi East 8.1 mph - N/A   Overcast
10:35 PM 48.2 °F - 39.2 °F 71% 29.81 in 8.0 mi East 4.6 mph - N/A   Overcast
10:55 PM 48.2 °F - 39.2 °F 71% 29.81 in 10.0 mi East 4.6 mph - N/A   Overcast
11:15 PM 46.4 °F 45.2 °F 39.2 °F 76% 29.82 in 7.0 mi East 3.5 mph - 0.02 in   Overcast
11:35 PM 46.4 °F 44.3 °F 41.0 °F 81% 29.81 in 5.0 mi ESE 4.6 mph - 0.03 in   Overcast
11:55 PM 46.4 °F 42.9 °F 42.8 °F 87% 29.79 in 10.0 mi ESE 6.9 mph - 0.04 in   Overcast